Location: Kitchener-Waterloo
(43.4500°N, 80.5000°W)
Time: 14:57:52
(UTC-05:00)

Daily predictions for brighter satellites

Satellite Brightness Start Highest point End
(mag) Time Altitude Azimuth Time Altitude Azimuth Time Altitude Azimuth
Cosmos 2285 Rocket 4.4 18:26:10 10° N 18:32:17 43° ENE 18:38:19 10° SE
Cosmos 1238 Rocket 2.0 18:31:50 10° N 18:34:48 73° E 18:37:54 10° SSE
Cosmos 2237 Rocket 3.2 18:36:32 10° N 18:41:22 27° NE 18:46:12 10° ESE
Cosmos 614 Rocket 3.9 18:38:29 10° SSW 18:43:33 87° ESE 18:48:39 10° NNE
Cosmos 2297 Rocket 3.7 18:41:39 10° SE 18:44:41 15° E 18:47:44 10° ENE
Cosmos 405 Rocket 3.9 18:43:07 10° NNE 18:46:26 24° ENE 18:49:40 10° SE
Cosmos 1140 Rocket 3.9 18:42:11 10° SSW 18:47:17 67° WNW 18:52:28 10° NNE
Cosmos 2333 4.2 18:41:34 10° NNW 18:47:19 71° ENE 18:53:03 10° SSE
Cosmos 1741 Rocket 4.0 18:42:54 10° SSW 18:48:06 76° ESE 18:53:20 10° NNE
COSMO-SKYMED 1 3.0 18:44:45 10° N 18:49:05 68° WNW 18:53:23 10° SSW
Cosmos 2237 4.5 18:45:07 10° NNW 18:50:52 77° WSW 18:56:33 10° SSE
Cosmos 2219 Rocket 2.4 18:45:27 10° NNW 18:50:54 49° ENE 18:56:19 10° SE
ALOS 2.7 18:46:52 10° SE 18:51:13 40° ENE 18:55:35 10° N
COSMOS 2428 2.7 18:45:35 10° NNW 18:51:19 85° ENE 18:57:01 10° SSE
Cosmos 2360 Rocket 3.6 18:46:57 10° NW 18:52:18 44° WSW 18:57:39 10° S
Meteor 1-19 Rocket 4.5 18:47:12 10° NNW 18:52:56 80° W 18:58:44 10° S
H-2A R/B 3.8 18:50:41 10° ESE 18:53:41 23° ENE 18:56:44 10° NNE
Meteor 2-4 Rocket 3.6 18:53:26 10° N 18:58:57 83° ENE 19:04:19 10° SSE
USA 229 DEB 3.8 18:52:45 10° NW 18:59:55 85° NE 19:07:12 10° SE
USA 229 3.8 18:52:51 10° NW 19:00:01 84° NE 19:07:18 10° SE
SJ-6B 2.7 18:56:08 10° SSE 19:00:04 67° ENE 19:03:55 10° N
Cosmos 2227 Rocket 3.0 19:00:22 10° SSE 19:05:10 29° ESE 19:10:00 10° NE
Cosmos 2219 3.3 19:00:12 10° SSW 19:05:57 87° WNW 19:11:44 10° NNE
BREEZE-M DEB (TANK) 3.2 19:04:38 10° WNW 19:07:35 76° NNE 19:15:07 11° ESE
Cosmos 468 Rocket 4.2 19:03:05 10° NNW 19:08:14 53° ENE 19:13:24 10° SE
Meteor 1-23 Rocket 4.2 19:04:17 10° N 19:10:06 84° E 19:15:49 10° S
Resurs 01 Rocket 1.9 19:06:16 10° SE 19:10:27 45° ENE 19:14:40 10° N
USA 215 4.3 19:05:53 10° NE 19:11:55 42° NNW 19:17:57 10° W
NOSS 3-1 (A) 4.4 19:05:14 10° NNW 19:12:20 45° NE 19:19:04 14° ESE
SL-08 ROCKET BODY 4.4 19:07:32 10° S 19:13:43 81° E 19:19:55 10° N
Cosmos 1025 Rocket 3.0 19:10:02 10° N 19:14:27 86° ENE 19:18:51 10° S
Gbstr 26 Del rocket 3.7 19:11:05 10° W 19:14:42 38° NNW 19:17:54 12° NE
Resurs 1-3 3.9 19:11:53 10° SE 19:16:02 43° ENE 19:20:13 10° N
Spot 2 Rocket 3.6 19:11:57 10° SSE 19:16:52 54° ENE 19:21:50 10° N
ATLAS 2AS CENTAUR R/B 4.3 19:10:35 10° NNW 19:16:55 24° NNE 19:21:49 14° ENE
Cosmos 2327 Rocket 4.5 19:11:00 10° S 19:17:12 72° E 19:23:34 10° NNE
Okean 1 Rocket 4.0 19:13:39 10° SSW 19:18:02 54° W 19:22:26 10° N
SL-16 R/B 3.3 19:14:05 10° N 19:18:41 25° NE 19:21:06 19° E
Cosmos 1892 Rocket 3.7 19:16:02 10° N 19:20:19 51° ENE 19:24:35 10° SSE
FREGAT/IRIS 3.5 19:18:24 10° S 19:21:25 53° W 19:24:29 10° NNW
GEOS 3 Rocket 4.4 19:20:20 15° ENE 19:23:48 29° ESE 19:28:21 10° S
Atlas Centaur 2 4.2 19:22:14 10° SSW 19:27:04 18° SSE 19:30:22 13° SE
GPS 2-04 Rocket1 4.3 19:23:35 10° WSW 19:27:13 28° S 19:29:35 17° SE
NOSS 3-1 (C) 4.1 19:21:49 10° NNW 19:29:16 66° NE 19:36:32 14° SE
Meteor 2-13 Rocket 4.4 19:24:53 10° S 19:30:52 65° E 19:36:54 10° NNE
Abrixas rocket 2.9 19:27:43 10° W 19:30:59 49° NNW 19:32:36 25° NE
OTV 4 1.9 19:28:47 10° SW 19:31:17 24° S 19:31:45 23° SSE
Cosmos 1814 Rocket 3.9 19:26:31 10° NNW 19:31:38 63° ENE 19:36:39 10° SSE
Okean 2 3.4 19:27:58 10° N 19:32:10 87° W 19:36:21 10° S
Cosmos 1536 4.3 19:28:53 10° SSW 19:32:39 40° WNW 19:36:26 10° N
Envisat 3.9 19:32:28 24° E 19:33:39 27° ENE 19:37:52 10° N
FENGYUN 3A 3.7 19:28:29 10° SSE 19:33:54 84° WSW 19:39:22 10° NNW
Cosmos 2074 Rocket 4.2 19:31:03 10° SSW 19:37:18 76° W 19:43:38 10° N
HJ-1C 4.1 19:36:37 10° S 19:39:55 56° W 19:43:15 10° NNW
Cosmos 1980 3.6 19:35:51 10° NNW 19:41:32 79° ENE 19:46:48 12° SSE
NOSS 0 Rocket 4.0 19:36:24 10° NNW 19:42:34 83° WSW 19:48:42 10° SSE
USA 186 3.5 19:45:05 17° NNE 19:45:05 17° NNE 19:45:57 10° N
Cosmos 1544 Rocket 3.4 19:39:19 10° S 19:43:38 73° E 19:47:57 10° NNE
Cosmos 2333 Rocket 2.3 19:39:13 10° NNW 19:45:00 79° WSW 19:50:45 10° SSE
Cosmos 2184 Rocket 4.4 19:39:47 10° SSW 19:46:03 68° W 19:52:17 10° N
Helios 1B rocket 2.7 19:42:11 10° NNE 19:46:11 44° E 19:50:09 10° S
USA 32 4.2 19:43:20 10° N 19:48:23 47° E 19:51:05 25° SE
Aureole 2 Rocket 3.9 19:46:51 10° N 19:48:31 22° NNE 19:48:31 22° NNE
Helios 1A 2.8 19:52:56 30° SSE 19:54:52 71° ENE 19:59:02 10° N
Cosmos 1437 3.0 19:52:16 10° NNW 19:55:34 69° W 19:56:58 31° S
Cosmos 1975 2.7 19:52:15 10° S 19:56:15 67° E 20:00:18 10° NNE
Cosmos 1602 Rocket 3.9 19:53:52 10° N 19:57:52 44° ENE 19:57:52 44° ENE
Cosmos 1500 3.0 19:54:41 10° S 19:58:26 68° E 20:02:13 10° NNE
Nadezhda 3 Rocket 3.9 19:55:16 10° N 20:01:29 88° E 20:07:41 10° S
Cosmos 1626 Rocket 3.7 19:57:51 10° N 20:02:06 51° ENE 20:02:06 51° ENE
Cosmos 1515 3.8 19:59:50 10° NNW 20:03:42 75° W 20:05:38 28° S
Cosmos 1486 Rocket 3.9 19:59:50 10° SSW 20:05:09 81° ESE 20:10:29 10° NNE
Cosmos 2082 3.6 20:03:08 10° SSW 20:08:53 85° ESE 20:14:37 10° NNE
Cosmos 841 Rocket 3.3 20:03:55 10° NNW 20:09:05 77° ENE 20:10:38 46° SE
Spot 1 4.2 20:11:15 31° S 20:13:07 69° WSW 20:17:21 10° NNW
ATLAS CENTAUR R/B 2.9 20:11:29 10° SW 20:13:24 26° WSW 20:13:24 26° WSW
Cosmos 2154 Rocket 4.2 20:09:29 10° SSW 20:15:50 75° W 20:22:11 10° N
Cosmos 540 Rocket 4.2 20:11:17 10° N 20:15:13 37° NE 20:15:13 37° NE
Cosmos 2341 Rocket 3.9 20:11:25 10° S 20:17:47 86° E 20:24:13 10° N
Cosmos 1763 Rocket 3.6 20:12:41 10° NNW 20:17:50 74° WSW 20:20:13 32° S
Cosmos 1455 Rocket 3.7 20:16:35 10° SSW 20:20:52 54° W 20:25:10 10° N
Cosmos 2237 Rocket 3.0 20:20:12 10° NW 20:25:42 50° WSW 20:29:45 18° S
H-2A R/B 4.4 20:28:46 11° NNE 20:28:46 11° NNE 20:29:08 10° NNE
Cosmos 332 Rocket 4.0 20:22:04 10° NNW 20:26:56 68° WSW 20:28:03 50° SSW
Meteor 2-8 Rocket 4.3 20:21:19 10° N 20:27:25 87° W 20:30:43 29° S
Cosmos 2297 Rocket 2.2 20:22:19 10° SSW 20:27:58 79° WNW 20:33:40 10° NNE
Meteor 2-19 Rocket 4.3 20:23:32 10° S 20:29:39 77° E 20:35:50 10° NNE
Cosmos 1066 Rocket 4.4 20:27:42 10° NNW 20:33:17 67° W 20:36:02 30° S
Cosmos 2219 Rocket 4.2 20:30:02 10° NW 20:34:30 25° WSW 20:38:59 10° SSW
Cosmos 371 Rocket 3.4 20:30:49 10° NNW 20:35:42 74° WSW 20:35:46 74° WSW
Resurs 01 Rocket 4.3 20:44:11 10° SW 20:47:09 18° W 20:50:08 10° NW
Cosmos 2227 Rocket 3.3 20:43:39 10° SW 20:49:00 43° WNW 20:54:26 10° NNE
GEOS 3 Rocket 4.2 21:01:29 51° NNW 21:02:00 54° NW 21:07:08 10° WSW
ERS-1 Rocket 4.1 21:05:00 38° NNW 21:05:00 38° NNW 21:08:06 10° NNW
SL-16 R/B 2.6 20:57:37 10° NNW 21:03:01 58° W 21:03:01 58° W
Cosmos 2218 Rocket 4.3 21:04:40 59° N 21:04:40 59° N 21:09:42 10° N
ATLAS 2AS CENTAUR R/B 3.1 21:01:38 10° NNW 21:09:17 62° NE 21:09:17 62° NE
Envisat 4.2 21:12:39 39° W 21:12:39 39° W 21:17:14 10° NNW
Atlas Centaur 2 4.3 21:10:10 10° SW 21:13:02 19° SSW 21:13:02 19° SSW
